Michigan City, IN

6:26 AM CDT on September 20, 2017 (GMT -0500)
Michigan City Municipal

Weather History for KMGC - January, 2013

Change the Weather History Date:

Sunday, January 20, 2013

  Actual Average (KSBN) Record (KSBN)
Temperature  
Mean Temperature 26 °F -  
Max Temperature 32 °F 30 °F 65 °F (1907)
Min Temperature 19 °F 15 °F -22 °F (1943)
Degree Days  
Heating Degree Days 40    
Moisture  
Dew Point 8 °F    
Average Humidity 57    
Maximum Humidity 68    
Minimum Humidity 38    
Precipitation  
Precipitation 0.00 in - - ()
Sea Level Pressure  
Sea Level Pressure 30.18 in    
Wind  
Wind Speed 14 mph (WNW)    
Max Wind Speed 26 mph    
Max Gust Speed 37 mph    
Visibility 10 miles    
Events Snow    
Averages and records for this station are not official NWS values.
T = Trace of Precipitation, MM = Missing Value Source: NWS Daily Summary

Daily Weather History Graph

Daily Weather History Graph

Search for Another Location

Airport or City:

Trip Planner

Search our weather history database for the weather conditions in past years. The results will help you decide how hot, cold, wet, or windy it might be!

Date:

Astronomy

Jan. 20, 2013 Rise Set
Actual Time 7:09 AM CST 4:48 PM CST
Civil Twilight 6:38 AM CST 5:18 PM CST
Nautical Twilight 6:04 AM CST 5:52 PM CST
Astronomical Twilight 5:31 AM CST 6:25 PM CST
Moon 11:49 AM CST 1:40 AM CST
Length of Visible Light 10h 39m
Length of Day
9h 39m
Waxing Gibbous, 66% of the Moon is Illuminated
Jan 20
Waxing Gibbous
Jan 26
Full
Feb 3
Last Quarter
Feb 10
New
Feb 17
First Quarter

Hourly Weather History & Observations

Time (CST) Temp. Windchill Dew Point Humidity Pressure Visibility Wind Dir Wind Speed Gust Speed Precip Events Conditions
12:15 AM 32.0 °F 18.4 °F 8.6 °F 38% 29.88 in 10.0 mi West 26.5 mph 36.8 mph N/A   Clear
12:35 AM 30.2 °F 19.3 °F 10.4 °F 44% 29.90 in 10.0 mi WNW 15.0 mph 34.5 mph N/A   Clear
12:55 AM 28.4 °F 14.7 °F 10.4 °F 47% 29.93 in 10.0 mi WNW 21.9 mph 33.4 mph N/A   Clear
1:15 AM 28.4 °F 14.4 °F 10.4 °F 47% 29.95 in 10.0 mi WNW 23.0 mph 36.8 mph N/A   Clear
1:35 AM 26.6 °F 13.4 °F 10.4 °F 51% 29.97 in 10.0 mi West 18.4 mph 29.9 mph N/A   Scattered Clouds
1:55 AM 26.6 °F 14.7 °F 12.2 °F 55% 29.99 in 10.0 mi West 15.0 mph 26.5 mph N/A   Mostly Cloudy
2:15 AM 26.6 °F 14.3 °F 12.2 °F 55% 30.01 in 10.0 mi WNW 16.1 mph 27.6 mph N/A   Overcast
2:35 AM 24.8 °F 14.0 °F 10.4 °F 54% 30.02 in 10.0 mi WNW 11.5 mph 27.6 mph N/A   Mostly Cloudy
2:55 AM 24.8 °F 12.9 °F 10.4 °F 54% 30.04 in 10.0 mi WNW 13.8 mph 23.0 mph N/A   Mostly Cloudy
3:15 AM 23.0 °F 9.6 °F 10.4 °F 59% 30.05 in 10.0 mi WNW 16.1 mph 27.6 mph N/A   Overcast
3:35 AM 23.0 °F 10.1 °F 10.4 °F 59% 30.07 in 10.0 mi WNW 15.0 mph 26.5 mph N/A   Overcast
3:55 AM 23.0 °F 8.3 °F 10.4 °F 59% 30.09 in 10.0 mi WNW 19.6 mph 26.5 mph N/A   Overcast
4:15 AM 21.2 °F 8.9 °F 8.6 °F 58% 30.10 in 10.0 mi NW 12.7 mph 25.3 mph N/A   Overcast
4:35 AM 21.2 °F 7.8 °F 8.6 °F 58% 30.11 in 10.0 mi NW 15.0 mph 20.7 mph N/A   Overcast
4:55 AM 21.2 °F 6.8 °F 8.6 °F 58% 30.12 in 10.0 mi NW 17.3 mph 26.5 mph N/A   Overcast
5:15 AM 21.2 °F 7.8 °F 10.4 °F 63% 30.13 in 10.0 mi WNW 15.0 mph 20.7 mph N/A   Overcast
5:35 AM 19.4 °F 5.5 °F 8.6 °F 63% 30.14 in 10.0 mi WNW 15.0 mph 31.1 mph N/A   Overcast
5:55 AM 19.4 °F 6.6 °F 10.4 °F 68% 30.15 in 10.0 mi NW 12.7 mph 23.0 mph N/A Snow Light Snow
6:15 AM 19.4 °F 6.6 °F 10.4 °F 68% 30.16 in 10.0 mi NW 12.7 mph 24.2 mph N/A   Overcast
6:35 AM 19.4 °F 6.0 °F 10.4 °F 68% 30.17 in 10.0 mi NW 13.8 mph 21.9 mph N/A   Overcast
6:55 AM 19.4 °F 7.9 °F 10.4 °F 68% 30.19 in 10.0 mi NW 10.4 mph 19.6 mph N/A   Overcast
7:15 AM 19.4 °F 6.0 °F 8.6 °F 63% 30.19 in 10.0 mi NW 13.8 mph 20.7 mph N/A   Overcast
7:35 AM 19.4 °F 7.9 °F 8.6 °F 63% 30.21 in 10.0 mi NW 10.4 mph - N/A   Overcast
7:55 AM 19.4 °F 6.6 °F 10.4 °F 68% 30.23 in 10.0 mi NW 12.7 mph 18.4 mph N/A Snow Light Snow
8:35 AM 19.4 °F 6.0 °F 10.4 °F 68% 30.24 in 10.0 mi WNW 13.8 mph 20.7 mph N/A Snow Light Snow
8:55 AM 19.4 °F 9.5 °F 8.6 °F 63% 30.25 in 10.0 mi WNW 8.1 mph 17.3 mph N/A   Overcast
9:15 AM 19.4 °F 7.9 °F 10.4 °F 68% 30.26 in 10.0 mi WNW 10.4 mph - N/A Snow Light Snow
9:35 AM 19.4 °F 7.9 °F 8.6 °F 63% 30.27 in 10.0 mi WNW 10.4 mph 17.3 mph N/A   Overcast
9:55 AM 19.4 °F 7.9 °F 8.6 °F 63% 30.28 in 10.0 mi WNW 10.4 mph - N/A   Overcast
10:15 AM 19.4 °F 7.9 °F 8.6 °F 63% 30.27 in 10.0 mi NW 10.4 mph - N/A   Overcast
10:35 AM 19.4 °F 7.2 °F 8.6 °F 63% 30.27 in 10.0 mi WNW 11.5 mph 17.3 mph N/A   Overcast
10:55 AM 19.4 °F 9.5 °F 8.6 °F 63% 30.27 in 10.0 mi NW 8.1 mph - N/A   Overcast
11:15 AM 19.4 °F 8.6 °F 10.4 °F 68% 30.25 in 10.0 mi West 9.2 mph - N/A   Overcast
11:35 AM 19.4 °F 7.9 °F 10.4 °F 68% 30.25 in 10.0 mi WNW 10.4 mph - N/A   Overcast
11:55 AM 19.4 °F 9.5 °F 8.6 °F 63% 30.24 in 10.0 mi West 8.1 mph 16.1 mph N/A   Overcast
12:15 PM 21.2 °F 11.7 °F 8.6 °F 58% 30.24 in 10.0 mi WNW 8.1 mph - N/A   Overcast
12:35 PM 19.4 °F 9.5 °F 8.6 °F 63% 30.24 in 10.0 mi West 8.1 mph - N/A   Overcast
12:55 PM 21.2 °F 10.1 °F 8.6 °F 58% 30.24 in 10.0 mi NW 10.4 mph - N/A   Mostly Cloudy
1:15 PM 21.2 °F 11.7 °F 8.6 °F 58% 30.24 in 10.0 mi West 8.1 mph - N/A   Mostly Cloudy
1:35 PM 23.0 °F 13.1 °F 8.6 °F 54% 30.24 in 10.0 mi WNW 9.2 mph - N/A   Mostly Cloudy
1:55 PM 21.2 °F 10.1 °F 8.6 °F 58% 30.24 in 10.0 mi WNW 10.4 mph - N/A   Mostly Cloudy
2:15 PM 21.2 °F 11.7 °F 8.6 °F 58% 30.23 in 10.0 mi NW 8.1 mph - N/A   Mostly Cloudy
2:35 PM 21.2 °F 13.6 °F 8.6 °F 58% 30.23 in 10.0 mi NW 5.8 mph - N/A   Mostly Cloudy
2:55 PM 21.2 °F 12.6 °F 8.6 °F 58% 30.23 in 10.0 mi NW 6.9 mph - N/A   Mostly Cloudy
3:15 PM 21.2 °F 10.9 °F 8.6 °F 58% 30.24 in 10.0 mi WNW 9.2 mph - N/A   Mostly Cloudy
3:35 PM 21.2 °F 12.6 °F 6.8 °F 54% 30.24 in 10.0 mi NW 6.9 mph - N/A   Clear
3:55 PM 21.2 °F 12.6 °F 6.8 °F 54% 30.24 in 10.0 mi NW 6.9 mph - N/A   Scattered Clouds
4:15 PM 21.2 °F 13.6 °F 5.0 °F 50% 30.24 in 10.0 mi NW 5.8 mph - N/A   Mostly Cloudy
4:35 PM 19.4 °F 12.8 °F 6.8 °F 58% 30.24 in 10.0 mi West 4.6 mph - N/A   Mostly Cloudy
4:55 PM 21.2 °F - 6.8 °F 54% 30.24 in 10.0 mi Calm Calm - N/A   Overcast
5:15 PM 21.2 °F 12.6 °F 6.8 °F 54% 30.24 in 10.0 mi WNW 6.9 mph - N/A   Overcast
5:35 PM 21.2 °F 14.9 °F 5.0 °F 50% 30.24 in 10.0 mi WNW 4.6 mph - N/A   Mostly Cloudy
5:55 PM 19.4 °F 14.3 °F 5.0 °F 54% 30.23 in 10.0 mi NW 3.5 mph - N/A   Scattered Clouds
6:15 PM 19.4 °F 11.5 °F 5.0 °F 54% 30.23 in 10.0 mi WNW 5.8 mph - N/A   Scattered Clouds
6:35 PM 21.2 °F 13.6 °F 3.2 °F 46% 30.23 in 10.0 mi WNW 5.8 mph - N/A   Scattered Clouds
6:55 PM 19.4 °F 11.5 °F 3.2 °F 49% 30.22 in 10.0 mi WNW 5.8 mph - N/A   Mostly Cloudy
7:15 PM 21.2 °F 14.9 °F 3.2 °F 46% 30.22 in 10.0 mi WNW 4.6 mph - N/A   Overcast
7:35 PM 21.2 °F 13.6 °F 5.0 °F 50% 30.22 in 10.0 mi West 5.8 mph - N/A   Overcast
7:55 PM 21.2 °F 13.6 °F 5.0 °F 50% 30.22 in 10.0 mi West 5.8 mph - N/A   Overcast
8:15 PM 21.2 °F 13.6 °F 5.0 °F 50% 30.21 in 10.0 mi West 5.8 mph - N/A   Overcast
8:35 PM 21.2 °F 16.4 °F 5.0 °F 50% 30.21 in 10.0 mi West 3.5 mph - N/A   Overcast
8:55 PM 21.2 °F 14.9 °F 5.0 °F 50% 30.20 in 10.0 mi West 4.6 mph - N/A   Overcast
9:15 PM 21.2 °F 12.6 °F 5.0 °F 50% 30.20 in 10.0 mi West 6.9 mph - N/A   Overcast
9:35 PM 21.2 °F 12.6 °F 6.8 °F 54% 30.20 in 10.0 mi West 6.9 mph - N/A   Overcast
9:55 PM 21.2 °F 11.7 °F 6.8 °F 54% 30.19 in 10.0 mi WSW 8.1 mph - N/A   Overcast
10:15 PM 19.4 °F 7.9 °F 5.0 °F 54% 30.19 in 10.0 mi West 10.4 mph - N/A   Overcast
10:35 PM 19.4 °F 9.5 °F 5.0 °F 54% 30.18 in 10.0 mi West 8.1 mph 16.1 mph N/A   Overcast
10:55 PM 19.4 °F 9.5 °F 5.0 °F 54% 30.18 in 10.0 mi West 8.1 mph - N/A   Overcast
11:15 PM 19.4 °F 9.5 °F 3.2 °F 49% 30.18 in 10.0 mi West 8.1 mph 16.1 mph N/A   Overcast
11:35 PM 19.4 °F 7.2 °F 3.2 °F 49% 30.17 in 10.0 mi West 11.5 mph 18.4 mph N/A   Overcast
11:55 PM 19.4 °F 8.6 °F 3.2 °F 49% 30.17 in 10.0 mi West 9.2 mph 16.1 mph N/A   Overcast